Home > Weather > Saint-Georges > Past weeks

Flag for Canada Weather for the Past 2 Weeks in Saint-Georges, Quebec, Canada

Now
33 °F

Chilly.


Feels Like: 30 °F
Forecast: 16 / 49 °F
Wind: 3 mph from East

Location: Beauceville

Current Time: Apr 29, 2016 at 10:01:55 AM

Latest Report: Apr 29, 2016 at 9:00 AM


Visibility: N/A

Pressure: 30.21 "Hg

Humidity: 46%

Dew Point: 14 °F

Location of Saint-GeorgesLocation

Historic Weather in Saint-Georges — Graph

°F

Saint-Georges Temperature Yesterday

Maximum temperature yesterday: 37 °F (at 4:00 PM)
Minimum temperature yesterday: 24 °F (at 1:00 AM)
Average temperature yesterday: 30 °F

High & Low Weather Summary for the Past Weeks

 TemperatureHumidityPressure
High68 °F (Apr 17, 5:00 PM)100% (Apr 22, 10:00 PM)30.61 "Hg (Apr 22, 10:00 PM)
Low18 °F (Apr 29, 5:00 AM)14% (Apr 21, 2:00 PM)29.76 "Hg (Apr 26, 4:00 PM)
Average39 °F49%30.13 "Hg
* Reported Apr 14 9:00 AM — Apr 29 9:00 AM, Saint-Georges, Weather by CustomWeather, © 2016

Note: Actual official high and low records may vary slightly from our data, if they occured in-between our weather recording intervals... More about our weather records

Advertising

Saint-Georges Weather History for the Previous 24 Hours

Scroll right to see more
 ConditionsComfort  
Time TempWeatherWind HumidityBarometerVisibility
9:00 AM
Fri, Apr 29
33 °FChilly.3 mph46%30.21 "HgN/A
8:00 AM28 °FChilly.2 mph61%30.22 "HgN/A
7:00 AM22 °FCold.2 mph77%30.22 "HgN/A
6:00 AM19 °FCold.1 mph81%30.21 "HgN/A
5:00 AM18 °FCold.No wind81%30.20 "HgN/A
4:00 AM20 °FCold.2 mph75%30.20 "HgN/A
3:00 AM21 °FCold.No wind71%30.20 "HgN/A
2:00 AM22 °FCold.1 mph67%30.20 "HgN/A
1:00 AM24 °FCold.1 mph66%30.21 "HgN/A
11:00 PM
Thu, Apr 28
27 °FChilly.1 mph55%30.19 "HgN/A
10:00 PM28 °FChilly.2 mph55%30.18 "HgN/A
9:00 PM30 °FChilly.1 mph47%30.17 "HgN/A
8:00 PM33 °FChilly.3 mph38%30.16 "HgN/A
7:00 PM35 °FChilly.5 mph34%30.14 "HgN/A
6:00 PM37 °FChilly.8 mph34%30.12 "HgN/A
5:00 PM37 °FChilly.7 mph31%30.10 "HgN/A
4:00 PM37 °FChilly.8 mph34%30.09 "HgN/A
3:00 PM36 °FChilly.8 mph33%30.09 "HgN/A
2:00 PM36 °FChilly.8 mph35%30.09 "HgN/A
1:00 PM32 °FChilly.8 mph36%30.09 "HgN/A
12:00 PM31 °FChilly.8 mph36%30.09 "HgN/A
11:00 AM31 °FChilly.8 mph44%30.08 "HgN/A
10:00 AM30 °FChilly.8 mph37%30.09 "HgN/A
Weather by CustomWeather, © 2016

See weather overviewHow to use our weather pages